Regional Weather Roundup
Issued by NWS Albany, NY

Home | Current Version | Previous Version | Graphics & Text | Print | Product List | Glossary On
Versions: 1 2 3 4 5 6 7 8 9 10 11 12 13 14 15 16 17 18 19 20 21 22 23 24 25 26 27 28 29 30 31 32 33 34 35 36 37 38 39 40 41 42 43 44 45 46 47 48 49 50
000
ASUS41 KALY 311410
RWRALY

NEW YORK STATE HOURLY WEATHER ROUNDUP
NATIONAL WEATHER SERVICE ALBANY NY
1000 AM EDT MON AUG 31 2015

NOTE: "FAIR" INDICATES FEW OR NO CLOUDS BELOW 12,000 FEET WITH NO
SIGNIFICANT WEATHER AND/OR NO OBSTRUCTIONS TO VISIBILITY.

NYZ032-033-038>043-046>054-057>066-NYZ062>081-311500-
EAST


CITY           SKY/WX    TMP DP  RH WIND       PRES   REMARKS
ALBANY         MOSUNNY   75  66  73 SE3       30.01F
GLENS FALLS    SUNNY     72  65  78 S6        29.99F
POUGHKEEPSIE   PTSUNNY   77  68  73 SW5       30.02S
NEWBURGH       PTSUNNY   75  70  83 W9        30.05S
MONTGOMERY     CLOUDY    76  68  76 S6        30.04S
WHITE PLAINS   CLOUDY    79  67  66 W6        30.04R
ISLIP          PTSUNNY   82  68  62 W9        30.01S
NEW YORK CITY  CLOUDY    80  67  64 CALM      30.03S
CENTRAL PARK   CLOUDY    81  66  60 CALM      30.06S
$$

NYZ005>009-017-018-044>046-055-056-311500-
CENTRAL


CITY           SKY/WX    TMP DP  RH WIND       PRES   REMARKS
FULTON         PTSUNNY   74  66  76 W7        30.03R
SYRACUSE       PTSUNNY   77  67  71 W13       30.02S
ROME           MOSUNNY   72  65  78 NW6       30.04S
ELMIRA         MOSUNNY   75  69  81 SW8       30.06S
BINGHAMTON     MOSUNNY   72  67  84 W8        30.09S
MONTICELLO     PTSUNNY   72  66  83 NW6       30.10S
$$

NYZ026>034-041>043-311500-
NORTH


CITY           SKY/WX    TMP DP  RH WIND       PRES   REMARKS
WATERTOWN      CLOUDY    72  68  87 SW7       30.00S FOG
FORT DRUM      NOT AVBL
MASSENA        SUNNY     73  64  73 SW12      29.95S
SARANAC LAKE   PTSUNNY   69  63  81 SW9       29.99S
PLATTSBURGH    CLOUDY    72  65  78 SE8       29.93S
$$

NYZ001>004-010>016-019>021-311500-
WEST


CITY           SKY/WX    TMP DP  RH WIND       PRES   REMARKS
NIAGARA FALLS  PTSUNNY   74  69  85 SW7       30.04S HAZE
BUFFALO        CLOUDY    74  69  85 SW10      30.05S
DUNKIRK        PTSUNNY   75  68  78 SW9       30.08R
JAMESTOWN      MOSUNNY   72  64  78 SW6       30.12S
WELLSVILLE     SUNNY     74  65  73 W7        30.14S
ROCHESTER      CLOUDY    75  68  78 W8        30.05R
PENN YAN       SUNNY     77  68  73 SW6       30.06S
$$

             KEY
       WCI = WIND CHILL INDEX
       VSB = VISIBILITY
       HX  = HEAT INDEX
$$



USA.gov is the U.S. government's official web portal to all federal, state and local government web resources and services.